Logan, UT

5:26 PM MST on November 11, 2019 (GMT -0700)
Logan-Cache

Weather History for KLGU - August, 2019

Change the Weather History Date:

Wednesday, August 7, 2019

  Actual Average Record
Temperature  
Mean Temperature 73 °F -  
Max Temperature 87 °F 90 °F 98 °F (1972)
Min Temperature 60 °F 55 °F 45 °F (1957)
Cooling Degree Days 8    
Growing Degree Days 23 (Base 50)    
Moisture  
Dew Point 51 °F    
Average Humidity 50    
Maximum Humidity 67    
Minimum Humidity 25    
Precipitation  
Precipitation 0.00 in - - ()
Sea Level Pressure  
Sea Level Pressure 29.89 in    
Wind  
Wind Speed 5 mph (SSW)    
Max Wind Speed 16 mph    
Max Gust Speed -    
Visibility 10 miles    
Events      
Averages and records for this station are not official NWS values.
T = Trace of Precipitation, MM = Missing Value Source: NWS Daily Summary

Daily Weather History Graph

Daily Weather History Graph

Search for Another Location

Airport or City:

Astronomy

Aug. 07, 2019 Rise Set
Actual Time 6:27 AM MDT 8:38 PM MDT
Civil Twilight 5:56 AM MDT 9:09 PM MDT
Nautical Twilight 5:18 AM MDT 9:46 PM MDT
Astronomical Twilight 4:36 AM MDT 10:28 PM MDT
Moon 2:10 PM MDT (8/7) 12:20 AM MDT (8/7)
Length of Visible Light 15h 12m
Length of Day
14h 11m
Waxing Crescent, 50% of the Moon is Illuminated
Aug 7
Waxing Crescent
Aug 15
Full
Aug 23
Last Quarter
Aug 30
New
Sep 5
First Quarter

Hourly Weather History & Observations

Time (MDT) Temp. Heat Index Dew Point Humidity Pressure Visibility Wind Dir Wind Speed Gust Speed Precip Events Conditions
12:51 AM 63.0 °F - 51.1 °F 65% 29.83 in 10.0 mi North 9.2 mph - N/A   Clear
1:51 AM 64.9 °F - 50.0 °F 58% 29.83 in 10.0 mi SE 4.6 mph - N/A   Clear
2:51 AM 64.0 °F - 48.0 °F 56% 29.82 in 10.0 mi WSW 4.6 mph - N/A   Clear
3:51 AM 60.1 °F - 48.9 °F 67% 29.83 in 10.0 mi WNW 4.6 mph - N/A   Clear
4:51 AM 62.1 °F - 48.9 °F 62% 29.83 in 10.0 mi Calm Calm - N/A   Clear
5:51 AM 64.9 °F - 48.9 °F 56% 29.82 in 10.0 mi East 4.6 mph - N/A   Clear
6:51 AM 64.0 °F - 51.1 °F 63% 29.82 in 10.0 mi Calm Calm - N/A   Clear
7:51 AM 64.9 °F - 53.1 °F 65% 29.85 in 10.0 mi Calm Calm - N/A   Clear
8:51 AM 66.9 °F - 52.0 °F 59% 29.88 in 10.0 mi WNW 3.5 mph - N/A   Unknown
9:51 AM 69.1 °F - 51.1 °F 53% 29.91 in 10.0 mi Calm Calm - N/A   Clear
10:19 AM 70.0 °F - 53.1 °F 55% 30.07 in 10.0 mi Calm Calm - N/A   Mostly Cloudy
10:51 AM 72.0 °F - 53.1 °F 51% 29.92 in 10.0 mi ENE 5.8 mph - N/A   Clear
11:51 AM 72.0 °F - 54.0 °F 53% 29.97 in 10.0 mi North 6.9 mph - N/A   Overcast
12:51 PM 75.9 °F - 55.0 °F 48% 29.98 in 10.0 mi North - - N/A   Overcast
1:51 PM 78.1 °F - 55.0 °F 45% 29.97 in 10.0 mi SSE 10.4 mph - N/A   Mostly Cloudy
2:51 PM 82.9 °F - 46.9 °F 28% 29.94 in 10.0 mi SSE 11.5 mph - N/A   Overcast
3:51 PM 84.0 °F - 45.0 °F 25% 29.93 in 10.0 mi South 16.1 mph - N/A   Clear
4:51 PM 86.0 °F - 46.0 °F 25% 29.90 in 10.0 mi South 13.8 mph - N/A   Clear
5:51 PM 82.9 °F - 50.0 °F 32% 29.88 in 10.0 mi SW 6.9 mph - N/A   Clear
6:51 PM 82.9 °F - 51.1 °F 33% 29.86 in 10.0 mi SSW 9.2 mph - N/A   Clear
7:51 PM 80.1 °F 79.9 °F 53.1 °F 39% 29.86 in 10.0 mi SW 3.5 mph - N/A   Clear
8:51 PM 75.0 °F - 52.0 °F 44% 29.87 in 10.0 mi Calm Calm - N/A   Clear
9:51 PM 71.1 °F - 52.0 °F 51% 29.91 in 10.0 mi ESE 3.5 mph - N/A   Clear
10:51 PM 66.0 °F - 51.1 °F 59% 29.93 in 10.0 mi WSW 5.8 mph - N/A   Clear
11:51 PM 66.0 °F - 51.1 °F 59% 29.93 in 10.0 mi Calm Calm - N/A   Clear